Notices

What's New in latest Release from April 7th, 2021:

- Updated Glossary, including Speed of Maximum Gust, and Total Hourly Precipitation

- Updated national and regional climate services offices contacts and prices information

- Addition of station inventory lists for 1981-2010, 1971-2000, and 1961-1990 Normals.

If you haven't already, please take our survey and provide feedback about our website: https://eccc.sondage-survey.ca/f/LanguageSelection.aspx?s=442ca660-fcf1-47c0-95a9-59707d6fd709

Hourly Data Report for November 30, 2019

VICTORIA UNIVERSITY CS
BRITISH COLUMBIA
Current Station Operator: ECCC - MSC

48°27'25.200" N
123°18'16.600" W
60.10 m
1018598
71783
WYJ

Download Data

Hourly Data (November 2019)
Hourly Data Report for November 30, 2019
TIME
LST
Temp Definition
°C
Dew Point Definition
°C
Rel Hum Definition
%
Precip. Amount Definition
mm

Wind Dir Definition
10's deg

Wind Spd Definition
km/h
Visibility Definition
km
Stn Press Definition
kPa
Hmdx Definition


Wind Chill Definition


Weather Definition


00:00 0.1 -2.2 84 0.0 35 5   100.72     LegendNANA
01:00 -2.4 -4.0 88 0.0 33 2   100.80   -3 LegendNANA
02:00 -2.7 -3.8 92 0.0 30 3   100.86   -4 LegendNANA
03:00 -2.4 -4.0 89 0.0 33 2   100.90   -3 LegendNANA
04:00 -0.9 -3.0 86 0.0 35 2   100.98   -2 LegendNANA
05:00 -1.2 -3.7 83 0.0 35 2   101.03   -2 LegendNANA
06:00 -0.5 -3.3 82 0.0 1 2   101.06   -1 LegendNANA
07:00 -1.6 -4.2 82 0.0 35 3   101.09   -3 LegendNANA
08:00 -1.2 -3.4 85 1.2 35 3   101.12   -2 LegendNANA
09:00 2.1 -2.9 69 0.0 1 8   101.13     LegendNANA
10:00 3.4 -3.5 61 1.4 2 9   101.18     LegendNANA
11:00 3.7 -2.6 63 0.3 1 10   101.20     LegendNANA
12:00 3.9 -3.3 60 0.0 1 11   101.18     LegendNANA
13:00 4.5 -2.9 59 0.0 1 9   101.14     LegendNANA
14:00 4.3 -3.3 58 0.0 2 8   101.11     LegendNANA
15:00 3.9 -2.9 61 0.0 2 11   101.10     LegendNANA
16:00 3.2 -3.2 62 0.0 1 11   101.06     LegendNANA
17:00 2.8 -3.0 65 0.0 36 10   101.01     LegendNANA
18:00 3.0 -3.7 61 0.0 1 13   100.98     LegendNANA
19:00 2.8 -3.2 65 0.0 36 11   100.96     LegendNANA
20:00 2.4 -2.1 72 0.0 36 11   100.87     LegendNANA
21:00 1.9 -1.8 76 0.0 36 10   100.82     LegendNANA
22:00 2.0 -1.7 77 0.0 35 12   100.78     LegendNANA
23:00 1.7 -1.3 80 0.0 35 9   100.76     LegendNANA

Notes on Data Quality.

Legend

  • E = Estimated
  • M = Missing
  • NA = Not Available*
  • [empty] = Indicates an unobserved value
Date modified: